星链-4255 (STARLINK-4255 )

导读

STARLINK-4255是美国太空探索技术公司(SpaceX)于2022年7月7日发射的星链低轨互联网卫星,隶属于Starlink星座,该卫星旨在为全球提供高速低延迟卫星互联网服务,属于SpaceX大规模星链组网的重要组成部分,目前已入轨运行,支撑全球卫星互联网的覆盖与服务能力拓展。

Basic Information
目录编号:
53003
目录名称:
STARLINK-4255
国际标识:
2022-076T
轨道中心:
EARTH
卫星名称:
星链-4255
卫星全名:
星链-4255 (STARLINK-4255 )
卫星状态:
在轨 (已飞行1520 天)
发射日期:
2022-07-07 UTC
国别 :
美国 (US)
星等 :
--
Orbit Information
数据来源 国际轨道数据
星历时间: 2026-09-01T21:48:57+0800
2天前
查看轨道信息
半长轴: 6840.855km
偏心率: 0.0001049
轨道倾角: 53.162°
近地点辐角 90.892°
升交点赤经 11.840°
平近点角 269.220°
近地点: 462km
远地点: 463.436km
周期: 93.848分钟
每日圈数: 15.343951
Detailed Information
固有亮度:
5
最大亮度:
2.5
卫星平台:
Starlink v1.5
覆盖范围:
全球
运营商:
太空探索技术公司
运营商所在国:
美国
制造商(研发单位):
太空探索技术公司
制造商所在国:
美国
使用方式:
暂无
Satellite Introduction
星链(Starlink)计划是由太空探索技术公司(SpaceX)提出的一个巨型低轨卫星互联网星座项目,计划在2019年至2024年间在太空搭建由约1.2万颗卫星组成的“星链”网络,其中1584颗将部署在地球上空550千米处的近地轨道,并从2020年开始工作。该卫星仍在工作。
2D Orbit Map
3D Orbit Map
Orbit Altitude Analysis Chart
Orbit Inclination Analysis Chart
Orbit Comprehensive Analysis Chart
View Comprehensive Chart
Conjunction Data List
Event ID Objects TCA Miss Dist (km) Collision Risk Probability Collision Risk Index (CRI) Action
CDM_260905-111905-300306-627221
2026-09-05T
11:19:59+0000
0.602 km
远距离
8.583358E-5 中风险 0.74
CDM_260829-172804-380305-300323
JY1SAT (43803)
2026-08-29T
17:28:25+0000
0.655 km
远距离
8.244707E-5 中风险 0.73
CDM_260904-042605-300306-014621
2026-09-04T
04:26:39+0000
1.308 km
极远距离
9.132409E-6 低风险 0.54
CDM_260903-065705-300305-503422
2026-09-03T
06:57:39+0000
1.516 km
极远距离
4.577789E-6 低风险 0.48
CDM_260903-150905-300306-014621
2026-09-03T
15:09:20+0000
1.676 km
极远距离
4.067412E-6 低风险 0.47
CDM_260904-183904-431205-300321
OBJECT C (44312)
2026-09-04T
18:39:16+0000
1.534 km
极远距离
3.898824E-6 低风险 0.47
CDM_260905-094605-300306-627221
2026-09-05T
09:46:11+0000
1.604 km
极远距离
3.502204E-6 低风险 0.46
CDM_260903-164305-300306-014621
2026-09-03T
16:43:08+0000
2.273 km
极远距离
1.850595E-6 低风险 0.4
CDM_260904-160005-300305-372721
2026-09-04T
16:00:20+0000
2.907 km
极远距离
1.239493E-6 低风险 0.37
CDM_260905-125305-300306-627221
2026-09-05T
12:53:46+0000
2.784 km
极远距离
1.016844E-6 低风险 0.35